Regional Weather Roundup
Issued by NWS

Home | Current Version | Previous Version | Text Only | Print | Product List | Glossary On
Versions: 1 2 3 4 5 6 7 8 9 10 11 12 13 14 15 16 17 18 19 20 21 22 23 24 25 26 27 28 29 30 31 32 33 34 35 36 37 38 39 40 41 42 43 44 45 46 47 48 49 50
000
ASUS46 KSTO 270515
RWRCA

NORTHERN AND CENTRAL CA REGIONAL WEATHER ROUNDUP
NATIONAL WEATHER SERVICE SACRAMENTO CA
1000 PM PDT TUE JUL 26 2016

NOTE: FAIR INDICATES FEW OR NO CLOUDS BELOW 12,000 FEET WITH NO
SIGNIFICANT WEATHER AND/OR OBSTRUCTIONS TO VISIBILITY.

CAZ001-003-270600-
NORTHWEST AREA

CITY           SKY/WX    TMP DP  RH WIND       PRES   REMARKS
CRESCENT CITY  CLEAR     57  53  86 S13       29.94R
UKIAH          CLEAR     78  52  40 CALM      29.86R
$$

CAZ006-505>513-270600-
BAY AREA

CITY           SKY/WX    TMP DP  RH WIND       PRES   REMARKS
SANTA ROSA     CLEAR     68  51  54 S5        29.83R
SAN RAFAEL     N/A       78  MM  MM MISG
NAPA           CLEAR     68  58  70 S5        29.83R
CONCORD        CLEAR     78  49  35 N5        29.82R
OAKLAND CITY   N/A       74  MM  MM MISG
OAKLAND        PTCLDY    65  55  70 NW3       29.86R
SAN FRAN CITY  N/A       57  MM  79 MISG
SAN FRAN ARPT  PTCLDY    59  50  72 W13       29.86R
LIVERMORE      CLEAR     84  44  24 CALM      29.84R
HAYWARD        CLEAR     71  51  49 NW5       29.86R
REDWOOD CITY   N/A       70  MM  66 MISG
MOFFETT ARPT   CLOUDY    72  55  55 NW3       29.87R
SAN JOSE ARPT  MOCLDY    76  51  41 W5        29.86R
$$
CAZ034-037-514>518-270600-
CENTRAL COAST

CITY           SKY/WX    TMP DP  RH WIND       PRES   REMARKS
WATSONVILLE    MOCLDY    53  52  96 CALM      29.91R FOG
SALINAS        MOCLDY    55  52  89 NW9       29.90R
MONTEREY       FOG       53  52  96 VRB3      29.91R VSB 1
SAN LUIS OBISP CLEAR     61  54  77 W5        29.90R
SANTA MARIA    CLEAR     58  55  90 NW5       29.91R
$$
CAZ015-016-270600-
NORTHERN SACRAMENTO VALLEY

CITY           SKY/WX    TMP DP  RH WIND       PRES   REMARKS
REDDING        CLEAR     89  51  27 CALM      29.80R
RED BLUFF      CLEAR     87  59  38 SE5       29.80R
OROVILLE       CLEAR     86  53  32 E7        29.81R
$$
CAZ016>018-270600-
SOUTHERN SACRAMENTO VALLEY

CITY           SKY/WX    TMP DP  RH WIND       PRES   REMARKS
AUBURN         CLEAR     73  36  25 CALM      29.91R
BEALE AFB      CLEAR     81  43  26 E6        29.78R
LINCOLN        FAIR      73  52  46 E7        29.78S
MARYSVILLE     CLEAR     82  60  47 E3        29.78R
SAC INTL ARPT  CLEAR     83  55  38 CALM      29.77R
MATHER AIRPORT CLEAR     86  46  25 SW5       29.79R
DOWNTOWN SAC   N/A       90  MM  MM MISG
SAC EXEC ARPT  CLEAR     84  54  35 S6        29.79R
VACAVILLE      CLEAR     83  45  26 CALM      29.79R
TRAVIS AFB     CLEAR     77  50  37 S16       29.77R
$$
CAZ019>021-270600-
SAN JOAQUIN VALLEY

CITY           SKY/WX    TMP DP  RH WIND       PRES   REMARKS
STOCKTON       CLEAR     79  57  46 NW8       29.80R
MODESTO        CLEAR     92  49  22 NW10      29.79R
MERCED         CLEAR     84  59  42 CALM      29.79R
LEMOORE        CLEAR     87  52  29 NW9       29.80R
FRESNO         PTCLDY    91  52  26 W8        29.81R
HANFORD        CLEAR     87  58  37 NW5       29.80R
PORTERVILLE    CLEAR     87  62  43 CALM      29.83R
BAKERSFIELD    CLEAR     93  43  17 N7        29.81R
$$
CAZ011-012-071-270600-
NORTHERN MOUNTAINS

CITY           SKY/WX    TMP DP  RH WIND       PRES   REMARKS
YREKA          CLEAR     79  50  36 N14       30.01R
MOUNT SHASTA   CLEAR     74  51  44 CALM      30.05R
ALTURAS        CLEAR     73  44  35 SE3       30.10R
$$
CAZ011-012-071-270600-
SIERRA NEVADA MTNS

CITY           SKY/WX    TMP DP  RH WIND       PRES   REMARKS
TRUCKEE        CLEAR     59  32  36 S6        30.26R
TAHOE VLY ARPT CLEAR     62  37  39 S3        30.28R
MAMMOTH LAKES    N/A     71  27  19 CALM      30.33R
$$



USA.gov is the U.S. government's official web portal to all federal, state and local government web resources and services.